Regional Weather Roundup
Issued by NWS

Home | Current Version | Previous Version | Graphics & Text | Print | Product List | Glossary On
Versions: 1 2 3 4 5 6 7 8 9 10 11 12 13 14 15 16 17 18 19 20 21 22 23 24 25 26 27 28 29 30 31 32 33 34 35 36 37 38 39 40 41 42 43 44 45 46 47 48 49 50
000
ASUS43 KMPX 252010
RWRMN
WEATHER ROUNDUP FOR MINNESOTA
NATIONAL WEATHER SERVICE TWIN CITIES/CHANHASSEN MN
300 PM CDT SUN SEP 25 2016


NOTE: "FAIR" INDICATES FEW OR NO CLOUDS BELOW 12,000 FEET WITH NO
SIGNIFICANT WEATHER AND/OR OBSTRUCTIONS TO VISIBILITY. N/A MEANS
CURRENT SKY AND/OR WEATHER CONDITIONS ARE NOT AVAILABLE.

MNZ060>063-068>070-252100-
   Twin Cities Metro

CITY           SKY/WX    TMP DP  RH WIND       PRES   REMARKS
TWIN CITIES    CLOUDY    65  51  60 SW15G23   29.89F
ST PAUL        PTSUNNY   64  53  67 SW12G20   29.90F
CRYSTAL        CLOUDY    64  50  60 SW15G22   29.87F
BLAINE         CLOUDY    66  54  63 SW12      29.88F
LAKEVILLE      CLOUDY    63  52  67 W10G17    29.91F
EDEN PRAIRIE   CLOUDY    65  52  62 W15G26    29.89F
LAKEVILLE      CLOUDY    63  52  67 W10G17    29.91F
SOUTH ST PAUL  PTSUNNY   65  52  62 SW9G18    29.90S
LAKE ELMO      PTSUNNY   64  54  68 SW10      29.90F
$$
MNZ001>005-007-008-013>017-022>024-027-028-252100-
   Northwest Minnesota

CITY           SKY/WX    TMP DP  RH WIND       PRES   REMARKS
BEMIDJI        LGT RAIN  55  54  95 W22       29.76R
HALLOCK        LGT RAIN  54  52  94 NW18G31   29.75R
ROSEAU         CLOUDY    55  50  82 W13G23    29.68R HAZE
WARROAD        CLOUDY    57  54  88 SW12      29.65S
THIEF RVR FALL LGT RAIN  53  51  93 W15G25    29.78R FOG
CROOKSTON      LGT RAIN  52  52 100 NW25G31   29.82R
FOSSTON        DRIZZLE   52  50  93 W15G26    29.81R
DETROIT LAKES  LGT RAIN  54  52  94 NW26      29.88R
MOORHEAD       CLOUDY    59  46  63 NW24G33   29.89R
PARK RAPIDS    CLOUDY    58  50  75 W22G31    29.81S
MAHNOMEN       CLOUDY    54  51  91 W18G25    29.83R
$$
MNZ006-009>011-018-025>026-252100-
   North Central Minnesota

CITY           SKY/WX    TMP DP  RH WIND       PRES   REMARKS
BAUDETTE       CLOUDY    58  52  80 SW13      29.66S
FLAG ISLAND    CLOUDY    61  52  72 SW12      29.61S
INTL FALLS     CLOUDY    62  51  67 SW10G21   29.67S
WASKISH        LGT RAIN  57  54  88 S9        29.70S
BIG FORK       PTSUNNY   61  54  77 SW13G24   29.73S
GRAND RAPIDS   CLOUDY    60  52  74 SW12G17   29.78S
ORR            CLOUDY    61  48  63 SW8G16    29.70R
COOK           CLOUDY    61  52  72 SW12G23   29.74R
WALKER         CLOUDY    57  51  79 W16G22    29.77R
$$
MNZ012-019>021-037-252100-
   Northeast Minnesota

CITY           SKY/WX    TMP DP  RH WIND       PRES   REMARKS
DULUTH         CLOUDY    61  53  75 W23G30    29.78R
ELY            PTSUNNY   70  57  64 SW18G26   29.69F
HIBBING        CLOUDY    59  51  75 SW9       29.75S
EVELETH        PTSUNNY   60  51  70 SW16G24   29.77R
DULUTH HARBOR  CLOUDY    66  55  68 SW28G36   29.77R
TWO HARBORS    MOSUNNY   72  59  64 S15G24    29.73S
SILVER BAY     CLOUDY    68  63  83 S13G20    29.72F
GRAND MARAIS     N/A     61  61 100 S12       29.73F
G MARAIS ARPRT DRZL/FOG  59  55  88 S12G20    29.77F VSB<1/4
$$
MNZ029>031-032-039>041-046>048-054>057-064-252100-
   West Central Minnesota

CITY           SKY/WX    TMP DP  RH WIND       PRES   REMARKS
FERGUS FALLS   CLOUDY    59  48  67 NW23G36   29.92R
MORRIS         CLOUDY    61  48  63 W21G28    29.92S
ALEXANDRIA     CLOUDY    57  52  83 W23G32    29.91R
ELBOW LAKE     CLOUDY    59  49  69 NW16G23   29.92R
WADENA         DRIZZLE   55  52  88 W20G29    29.85R
GLENWOOD       MOSUNNY   57  52  82 W24G36    29.90S
BENSON         CLOUDY    63  46  55 NW23G30   29.93S
MADISON          N/A     64  50  59 NW17G25   29.97S
WILLMAR        PTSUNNY   61  52  72 NW23G30   29.94R
$$
MNZ033>034-036-042>043-049>051-058-059-252100-
   Central Minnesota

CITY           SKY/WX    TMP DP  RH WIND       PRES   REMARKS
ST CLOUD       LGT RAIN  62  56  80 W16       29.86F
SAUK CENTRE    CLOUDY    58  51  76 W21G33    29.89S
PAYNESVILLE    CLOUDY    62  51  69 W15G22    29.90F
AITKIN         CLOUDY    61  52  72 SW13G18   29.80R HAZE
PINE RIVER     LGT RAIN  55  54  94 W9        29.84S
BRAINERD       CLOUDY    59  53  80 W16G23    29.83R
STAPLES        CLOUDY    55  54  94 W21G29    29.85R
LONG PRAIRIE   CLOUDY    55  52  88 SW13G21   29.88S
LITTLE FALLS   PTSUNNY   59  50  72 W16G24    29.86S
LITCHFIELD     CLOUDY    61  55  82 W14       29.91S
BUFFALO        CLOUDY    62  54  75 SW6       29.89F
MAPLE LAKE     CLOUDY    62  56  81 W12G20    29.89F
HUTCHINSON     CLOUDY    63  55  76 W14G20    29.92S
$$
MNZ037-044-045-052-053-252100-
   East Central Minnesota

CITY           SKY/WX    TMP DP  RH WIND       PRES   REMARKS
PRINCETON      DRIZZLE   63  55  77 SW13G21   29.87S
MORA           PTSUNNY   59  52  77 SW12      29.86S
CAMBRIDGE      CLOUDY    64  52  63 SW10      29.84F
MOOSE LAKE     CLOUDY    61  52  72 SW8       29.80F
HINCKLEY       CLOUDY    63  54  72 SW14      29.84F
CLOQUET        CLOUDY    59  52  77 SW9       29.80S
MCGREGOR       CLOUDY    61  52  72 SW13      29.80F
$$
MNZ071>073-080-081-089-090-097-098-252100-
   Southwest Minnesota

CITY           SKY/WX    TMP DP  RH WIND       PRES   REMARKS
MONTEVIDEO     CLOUDY    63  50  63 N18G28    29.97S
GRANITE FALLS  CLOUDY    65  51  60 W26G32    29.98R
CANBY          CLOUDY    62  49  64 W22G29    30.00S
MARSHALL       CLOUDY    61  49  64 NW24G33   29.98R
REDWOOD FALLS  LGT RAIN  60  50  69 W21G30    29.95S
OLIVIA         CLOUDY    61  50  67 W21G31    29.93S
PIPESTONE      CLOUDY    59  48  67 NW15G22   30.04R
WINDOM         CLOUDY    61  48  63 W22G28    30.00R
WORTHINGTON    CLOUDY    57  50  77 W16G25    30.04R
JACKSON        CLOUDY    61  46  59 W22G30    30.01S
TRACY          CLOUDY    62  51  67 NW18G25   30.00R
$$
MNZ065>067-074>077-082>085-091>093-252100-
   South Central Minnesota

CITY           SKY/WX    TMP DP  RH WIND       PRES   REMARKS
MANKATO        LGT RAIN  61  53  75 W18       29.95S
ST JAMES       CLOUDY    63  52  67 W16G23    29.98S
FAIRMONT       CLOUDY    61  51  70 W22       29.99S
GLENCOE        HVY RAIN  60  58  91 W12G23    29.92R
FARIBAULT      CLOUDY    64  54  68 SW9G16    29.94R
OWATONNA       CLOUDY    64  52  63 W13G23    29.94S
WASECA         CLOUDY    63  50  63 W15G21    29.96S
ALBERT LEA     CLOUDY    63  52  67 W10G22    29.96S
$$
MNZ078>079-086>088-094>096-252100-
   Southeast Minnesota

CITY           SKY/WX    TMP DP  RH WIND       PRES   REMARKS
ROCHESTER      CLOUDY    68  53  58 W14G23    29.93F
RED WING       PTSUNNY   68  52  56 W16G24    29.89S
STANTON        CLOUDY    64  52  64 W12G22    29.92R
DODGE CENTER   CLOUDY    66  52  59 W17       29.93F
WINONA         CLOUDY    70  52  52 W12       29.91S
AUSTIN         CLOUDY    64  52  63 W14G20    29.94F
PRESTON        CLOUDY    63  51  66 W17G24    29.95S
$$
ABBREVIATIONS USED IN REMARKS
   TC - TEMPERATURES IN CELSIUS
  WCI - WIND CHILL INDEX
   HX - HEAT INDEX
  VSB - VISIBILITY
$$



USA.gov is the U.S. government's official web portal to all federal, state and local government web resources and services.